Time,TemperatureF,DewpointF,PressureIn,WindDirection,WindDirectionDegrees,WindSpeedMPH,WindSpeedGustMPH,Humidity,HourlyPrecipIn,Conditions,Clouds,dailyrainin,SoftwareType,DateUTC
2013-02-19 00:00:00,38.8,5.2,31.02,WSW,243,0.0,6.0,24,0.00,,,0.00,meteohub,2013-02-19 05:00:00,
2013-02-19 00:04:00,38.8,5.2,31.02,South,180,4.0,4.0,24,0.00,,,0.00,meteohub,2013-02-19 05:04:00,
2013-02-19 00:09:00,38.8,5.2,31.02,SSW,205,0.0,4.0,24,0.00,,,0.00,meteohub,2013-02-19 05:09:00,
2013-02-19 00:14:00,38.8,5.2,31.02,SE,129,0.0,6.0,24,0.00,,,0.00,meteohub,2013-02-19 05:14:00,
2013-02-19 00:19:00,38.7,5.0,31.02,SSW,213,4.0,6.0,24,0.00,,,0.00,meteohub,2013-02-19 05:19:00,
2013-02-19 00:24:00,38.7,5.0,31.02,SSW,210,3.0,6.0,24,0.00,,,0.00,meteohub,2013-02-19 05:24:00,
2013-02-19 00:29:00,38.5,6.6,31.02,SSW,193,0.0,6.0,26,0.00,,,0.00,meteohub,2013-02-19 05:29:00,
2013-02-19 00:34:00,38.5,6.6,31.02,SW,215,2.0,6.0,26,0.00,,,0.00,meteohub,2013-02-19 05:34:00,
2013-02-19 00:39:00,38.3,6.4,31.02,SSE,165,5.0,6.0,26,0.00,,,0.00,meteohub,2013-02-19 05:39:00,
2013-02-19 00:44:00,38.3,6.4,31.02,SSW,211,2.0,5.0,26,0.00,,,0.00,meteohub,2013-02-19 05:44:00,
2013-02-19 00:49:00,38.1,6.3,31.02,WSW,238,3.0,5.0,26,0.00,,,0.00,meteohub,2013-02-19 05:49:00,
2013-02-19 00:54:00,37.9,6.1,31.02,SSW,196,3.0,5.0,26,0.00,,,0.00,meteohub,2013-02-19 05:54:00,
2013-02-19 00:59:00,37.9,8.4,31.02,SW,232,0.0,5.0,29,0.00,,,0.00,meteohub,2013-02-19 05:59:00,
2013-02-19 01:04:00,37.6,8.2,31.02,WSW,254,0.0,6.0,29,0.00,,,0.00,meteohub,2013-02-19 06:04:00,
2013-02-19 01:10:00,37.4,8.1,31.02,SW,229,3.0,6.0,29,0.00,,,0.00,meteohub,2013-02-19 06:10:00,
2013-02-19 01:15:00,37.2,8.6,31.02,South,190,3.0,6.0,30,0.00,,,0.00,meteohub,2013-02-19 06:15:00,
2013-02-19 01:20:00,37.0,8.4,31.02,SSW,212,0.0,4.0,30,0.00,,,0.00,meteohub,2013-02-19 06:20:00,
2013-02-19 01:25:00,37.2,8.6,31.02,SSW,197,4.0,4.0,30,0.00,,,0.00,meteohub,2013-02-19 06:25:00,
2013-02-19 01:30:00,37.2,8.6,31.02,SSW,193,2.0,4.0,30,0.00,,,0.00,meteohub,2013-02-19 06:30:00,
2013-02-19 01:35:00,37.2,8.6,31.02,SW,214,0.0,6.0,30,0.00,,,0.00,meteohub,2013-02-19 06:35:00,
2013-02-19 01:40:00,37.0,8.4,31.02,SW,231,0.0,6.0,30,0.00,,,0.00,meteohub,2013-02-19 06:40:00,
2013-02-19 01:46:00,37.0,8.4,31.02,South,182,0.0,4.0,30,0.00,,,0.00,meteohub,2013-02-19 06:46:00,
2013-02-19 01:51:00,37.0,8.4,31.02,SSW,199,4.0,4.0,30,0.00,,,0.00,meteohub,2013-02-19 06:51:00,
2013-02-19 01:56:00,36.9,8.2,31.02,SSW,199,3.0,5.0,30,0.00,,,0.00,meteohub,2013-02-19 06:56:00,
2013-02-19 02:01:00,36.9,8.2,31.02,SSW,197,0.0,5.0,30,0.00,,,0.00,meteohub,2013-02-19 07:01:00,
2013-02-19 02:06:00,36.7,8.2,31.02,SW,222,0.0,4.0,30,0.00,,,0.00,meteohub,2013-02-19 07:06:00,
2013-02-19 02:11:00,36.5,8.1,31.02,SSW,198,0.0,4.0,30,0.00,,,0.00,meteohub,2013-02-19 07:11:00,
2013-02-19 02:16:00,36.1,8.4,31.02,SSW,200,0.0,2.0,31,0.00,,,0.00,meteohub,2013-02-19 07:16:00,
2013-02-19 02:21:00,36.0,8.2,31.02,South,180,3.0,3.0,31,0.00,,,0.00,meteohub,2013-02-19 07:21:00,
2013-02-19 02:26:00,36.0,9.0,31.02,SSW,205,4.0,0.0,32,0.00,,,0.00,meteohub,2013-02-19 07:26:00,
2013-02-19 02:32:00,36.3,9.3,31.02,South,180,0.0,0.0,32,0.00,,,0.00,meteohub,2013-02-19 07:32:00,
2013-02-19 02:37:00,36.7,10.2,31.02,SW,218,3.0,5.0,33,0.00,,,0.00,meteohub,2013-02-19 07:37:00,
2013-02-19 02:42:00,36.9,10.4,31.02,SW,216,3.0,5.0,33,0.00,,,0.00,meteohub,2013-02-19 07:42:00,
2013-02-19 02:47:00,37.2,10.8,31.02,WSW,241,2.0,6.0,33,0.00,,,0.00,meteohub,2013-02-19 07:47:00,
2013-02-19 02:52:00,37.6,10.4,31.02,SSE,154,3.0,6.0,32,0.00,,,0.00,meteohub,2013-02-19 07:52:00,
2013-02-19 02:57:00,37.6,10.4,31.02,South,183,5.0,5.0,32,0.00,,,0.00,meteohub,2013-02-19 07:57:00,
2013-02-19 03:02:00,37.8,10.6,31.02,SSW,207,0.0,4.0,32,0.00,,,0.00,meteohub,2013-02-19 08:02:00,
2013-02-19 03:07:00,37.8,10.6,31.02,SSW,199,5.0,5.0,32,0.00,,,0.00,meteohub,2013-02-19 08:07:00,
2013-02-19 03:12:00,37.8,10.6,31.02,SSW,196,4.0,5.0,32,0.00,,,0.00,meteohub,2013-02-19 08:12:00,
2013-02-19 03:17:00,37.8,10.6,31.02,SSW,197,2.0,6.0,32,0.00,,,0.00,meteohub,2013-02-19 08:17:00,
2013-02-19 03:22:00,37.8,10.6,31.02,SSW,210,4.0,6.0,32,0.00,,,0.00,meteohub,2013-02-19 08:22:00,
2013-02-19 03:27:00,37.6,10.4,31.02,SSW,201,0.0,5.0,32,0.00,,,0.00,meteohub,2013-02-19 08:27:00,
2013-02-19 03:32:00,37.8,10.6,31.02,South,184,3.0,5.0,32,0.00,,,0.00,meteohub,2013-02-19 08:32:00,
2013-02-19 03:37:00,37.9,10.8,31.02,West,260,6.0,7.0,32,0.00,,,0.00,meteohub,2013-02-19 08:37:00,
2013-02-19 03:42:00,38.1,10.2,31.02,SSW,196,3.0,7.0,31,0.00,,,0.00,meteohub,2013-02-19 08:42:00,
2013-02-19 03:47:00,38.5,10.4,31.02,SW,236,4.0,7.0,31,0.00,,,0.00,meteohub,2013-02-19 08:47:00,
2013-02-19 03:52:00,38.7,10.6,31.02,SW,214,4.0,7.0,31,0.00,,,0.00,meteohub,2013-02-19 08:52:00,
2013-02-19 03:57:00,38.7,10.6,31.02,South,172,4.0,6.0,31,0.00,,,0.00,meteohub,2013-02-19 08:57:00,
2013-02-19 04:02:00,38.7,10.6,31.02,SSW,205,3.0,6.0,31,0.00,,,0.00,meteohub,2013-02-19 09:02:00,
2013-02-19 04:07:00,38.5,10.4,31.02,SSW,205,3.0,6.0,31,0.00,,,0.00,meteohub,2013-02-19 09:07:00,
2013-02-19 04:12:00,38.3,10.2,31.02,SW,222,0.0,6.0,31,0.00,,,0.00,meteohub,2013-02-19 09:12:00,
2013-02-19 04:17:00,37.9,10.0,31.02,South,180,2.0,5.0,31,0.00,,,0.00,meteohub,2013-02-19 09:17:00,
2013-02-19 04:22:00,37.9,10.0,31.02,South,171,0.0,5.0,31,0.00,,,0.00,meteohub,2013-02-19 09:22:00,
2013-02-19 04:27:00,37.8,9.9,31.02,South,175,3.0,4.0,31,0.00,,,0.00,meteohub,2013-02-19 09:27:00,
2013-02-19 04:32:00,37.6,9.7,31.02,South,186,2.0,4.0,31,0.00,,,0.00,meteohub,2013-02-19 09:32:00,
2013-02-19 04:37:00,37.6,10.4,31.02,WSW,237,0.0,4.0,32,0.00,,,0.00,meteohub,2013-02-19 09:37:00,
2013-02-19 04:42:00,37.6,10.4,31.02,SSW,198,3.0,4.0,32,0.00,,,0.00,meteohub,2013-02-19 09:42:00,
2013-02-19 04:47:00,37.6,11.1,31.02,SW,236,2.0,4.0,33,0.00,,,0.00,meteohub,2013-02-19 09:47:00,
2013-02-19 04:52:00,37.6,11.1,31.02,SW,221,0.0,4.0,33,0.00,,,0.00,meteohub,2013-02-19 09:52:00,
2013-02-19 04:57:00,37.6,11.1,31.02,SW,228,3.0,6.0,33,0.00,,,0.00,meteohub,2013-02-19 09:57:00,
2013-02-19 05:02:00,37.8,11.3,31.02,SSW,199,3.0,6.0,33,0.00,,,0.00,meteohub,2013-02-19 10:02:00,
2013-02-19 05:07:00,37.8,11.8,31.02,SSW,197,3.0,6.0,34,0.00,,,0.00,meteohub,2013-02-19 10:07:00,
2013-02-19 05:13:00,37.6,11.7,31.02,South,191,3.0,6.0,34,0.00,,,0.00,meteohub,2013-02-19 10:13:00,
2013-02-19 05:18:00,37.6,12.4,31.02,SSW,210,3.0,6.0,35,0.00,,,0.00,meteohub,2013-02-19 10:18:00,
2013-02-19 05:23:00,37.6,12.4,31.02,SW,230,5.0,6.0,35,0.00,,,0.00,meteohub,2013-02-19 10:23:00,
2013-02-19 05:28:00,37.6,12.4,31.02,SW,214,0.0,6.0,35,0.00,,,0.00,meteohub,2013-02-19 10:28:00,
2013-02-19 05:33:00,37.6,11.7,31.02,SSE,167,3.0,5.0,34,0.00,,,0.00,meteohub,2013-02-19 10:33:00,
2013-02-19 05:38:00,37.4,11.7,31.02,SSW,201,2.0,5.0,34,0.00,,,0.00,meteohub,2013-02-19 10:38:00,
2013-02-19 05:44:00,37.2,12.0,31.02,SSW,210,2.0,5.0,35,0.00,,,0.00,meteohub,2013-02-19 10:44:00,
2013-02-19 05:49:00,37.0,11.8,31.02,SSW,206,4.0,5.0,35,0.00,,,0.00,meteohub,2013-02-19 10:49:00,
2013-02-19 05:54:00,36.9,12.4,31.02,SW,215,3.0,4.0,36,0.00,,,0.00,meteohub,2013-02-19 10:54:00,
2013-02-19 05:59:00,36.9,12.4,31.02,South,187,4.0,4.0,36,0.00,,,0.00,meteohub,2013-02-19 10:59:00,
2013-02-19 06:04:00,36.9,12.4,31.02,SSW,203,0.0,4.0,36,0.00,,,0.00,meteohub,2013-02-19 11:04:00,
2013-02-19 06:09:00,36.7,12.2,31.02,SW,227,3.0,4.0,36,0.00,,,0.00,meteohub,2013-02-19 11:09:00,
2013-02-19 06:14:00,36.7,12.2,31.02,South,175,0.0,5.0,36,0.00,,,0.00,meteohub,2013-02-19 11:14:00,
2013-02-19 06:20:00,36.7,12.9,31.02,SSW,202,3.0,5.0,37,0.00,,,0.00,meteohub,2013-02-19 11:20:00,
2013-02-19 06:25:00,36.7,13.5,31.02,SW,225,3.0,5.0,38,0.00,,,0.00,meteohub,2013-02-19 11:25:00,
2013-02-19 06:30:00,36.9,13.6,31.02,SW,225,3.0,5.0,38,0.00,,,0.00,meteohub,2013-02-19 11:30:00,
2013-02-19 06:35:00,36.9,14.2,31.02,South,177,2.0,5.0,39,0.00,,,0.00,meteohub,2013-02-19 11:35:00,
2013-02-19 06:40:00,36.9,14.2,31.02,South,185,3.0,5.0,39,0.00,,,0.00,meteohub,2013-02-19 11:40:00,
2013-02-19 06:45:00,37.0,14.4,31.02,SW,216,3.0,5.0,39,0.00,,,0.00,meteohub,2013-02-19 11:45:00,
2013-02-19 06:50:00,37.0,14.4,31.02,SSE,152,3.0,5.0,39,0.00,,,0.00,meteohub,2013-02-19 11:50:00,
2013-02-19 06:55:00,37.2,14.5,31.02,SSW,194,0.0,4.0,39,0.00,,,0.00,meteohub,2013-02-19 11:55:00,
2013-02-19 07:01:00,37.2,14.5,31.02,SE,135,2.0,4.0,39,0.00,,,0.00,meteohub,2013-02-19 12:01:00,
2013-02-19 07:06:00,37.4,14.2,31.02,South,190,0.0,4.0,38,0.00,,,0.00,meteohub,2013-02-19 12:06:00,
2013-02-19 07:11:00,37.8,15.1,31.02,South,191,0.0,4.0,39,0.00,,,0.00,meteohub,2013-02-19 12:11:00,
2013-02-19 07:16:00,37.9,15.3,31.02,South,190,3.0,4.0,39,0.00,,,0.00,meteohub,2013-02-19 12:16:00,
2013-02-19 07:21:00,38.3,15.4,31.02,SSW,202,0.0,6.0,39,0.00,,,0.00,meteohub,2013-02-19 12:21:00,
2013-02-19 07:26:00,38.7,15.8,31.02,SW,220,0.0,6.0,39,0.00,,,0.00,meteohub,2013-02-19 12:26:00,
2013-02-19 07:31:00,38.8,16.0,31.02,SW,230,2.0,4.0,39,0.00,,,0.00,meteohub,2013-02-19 12:31:00,
2013-02-19 07:36:00,39.2,15.8,31.02,SW,219,5.0,5.0,38,0.00,,,0.00,meteohub,2013-02-19 12:36:00,
2013-02-19 07:41:00,39.6,16.7,31.02,SSW,200,2.0,6.0,39,0.00,,,0.00,meteohub,2013-02-19 12:41:00,
2013-02-19 07:46:00,40.1,17.1,31.02,SSW,204,5.0,6.0,39,0.00,,,0.00,meteohub,2013-02-19 12:46:00,
2013-02-19 07:52:00,40.5,17.4,31.02,SSW,199,3.0,5.0,39,0.00,,,0.00,meteohub,2013-02-19 12:52:00,
2013-02-19 07:57:00,41.2,17.4,31.02,SSW,208,4.0,5.0,38,0.00,,,0.00,meteohub,2013-02-19 12:57:00,
2013-02-19 08:02:00,41.7,18.0,31.02,South,174,3.0,6.0,38,0.00,,,0.00,meteohub,2013-02-19 13:02:00,
2013-02-19 08:07:00,42.3,18.5,31.02,WSW,256,4.0,6.0,38,0.00,,,0.00,meteohub,2013-02-19 13:07:00,
2013-02-19 08:12:00,43.0,19.0,31.02,SSE,162,3.0,9.0,38,0.00,,,0.00,meteohub,2013-02-19 13:12:00,
2013-02-19 08:17:00,43.3,19.4,31.02,SW,235,3.0,9.0,38,0.00,,,0.00,meteohub,2013-02-19 13:17:00,
2013-02-19 08:22:00,43.5,19.6,31.02,SSW,210,0.0,9.0,38,0.00,,,0.00,meteohub,2013-02-19 13:22:00,
2013-02-19 08:27:00,43.9,19.9,31.02,SW,216,3.0,9.0,38,0.00,,,0.00,meteohub,2013-02-19 13:27:00,
2013-02-19 08:32:00,44.1,20.1,31.02,South,183,4.0,6.0,38,0.00,,,0.00,meteohub,2013-02-19 13:32:00,
2013-02-19 08:37:00,44.4,20.5,31.02,WSW,247,5.0,6.0,38,0.00,,,0.00,meteohub,2013-02-19 13:37:00,
2013-02-19 08:42:00,44.8,20.7,31.02,WSW,243,3.0,8.0,38,0.00,,,0.00,meteohub,2013-02-19 13:42:00,
2013-02-19 08:47:00,44.8,20.7,31.02,SSW,198,3.0,8.0,38,0.00,,,0.00,meteohub,2013-02-19 13:47:00,
2013-02-19 08:52:00,45.0,20.8,31.02,SW,226,5.0,8.0,38,0.00,,,0.00,meteohub,2013-02-19 13:52:00,
2013-02-19 08:57:00,45.1,21.0,31.02,SSW,212,3.0,8.0,38,0.00,,,0.00,meteohub,2013-02-19 13:57:00,
2013-02-19 09:02:00,45.3,21.2,31.02,WSW,258,6.0,8.0,38,0.00,,,0.00,meteohub,2013-02-19 14:02:00,
2013-02-19 09:07:00,45.3,21.2,31.02,SSW,193,3.0,8.0,38,0.00,,,0.00,meteohub,2013-02-19 14:07:00,
2013-02-19 09:12:00,45.5,21.4,31.02,SSW,197,4.0,8.0,38,0.00,,,0.00,meteohub,2013-02-19 14:12:00,
2013-02-19 09:17:00,45.5,21.4,31.02,WSW,247,3.0,8.0,38,0.00,,,0.00,meteohub,2013-02-19 14:17:00,
2013-02-19 09:22:00,45.7,21.6,31.02,SW,227,5.0,8.0,38,0.00,,,0.00,meteohub,2013-02-19 14:22:00,
2013-02-19 09:27:00,45.9,21.7,31.02,SSE,163,5.0,8.0,38,0.00,,,0.00,meteohub,2013-02-19 14:27:00,
2013-02-19 09:32:00,46.0,21.9,31.02,SSW,202,4.0,8.0,38,0.00,,,0.00,meteohub,2013-02-19 14:32:00,
2013-02-19 09:37:00,46.2,21.9,31.02,SSW,202,4.0,8.0,38,0.00,,,0.00,meteohub,2013-02-19 14:37:00,
2013-02-19 09:42:00,46.4,22.1,31.02,SW,224,4.0,8.0,38,0.00,,,0.00,meteohub,2013-02-19 14:42:00,
2013-02-19 09:47:00,46.4,22.1,31.02,SSW,199,0.0,8.0,38,0.00,,,0.00,meteohub,2013-02-19 14:47:00,
2013-02-19 09:52:00,46.6,22.3,31.02,South,180,0.0,8.0,38,0.00,,,0.00,meteohub,2013-02-19 14:52:00,
2013-02-19 09:57:00,46.8,22.5,31.02,South,182,5.0,7.0,38,0.00,,,0.00,meteohub,2013-02-19 14:57:00,
2013-02-19 10:02:00,46.9,23.2,31.02,West,259,4.0,7.0,39,0.00,,,0.00,meteohub,2013-02-19 15:02:00,
2013-02-19 10:07:00,47.3,24.8,31.02,South,188,3.0,8.0,41,0.00,,,0.00,meteohub,2013-02-19 15:07:00,
2013-02-19 10:12:00,47.3,25.3,31.02,WSW,257,4.0,8.0,42,0.00,,,0.00,meteohub,2013-02-19 15:12:00,
2013-02-19 10:17:00,47.5,25.5,31.02,SW,222,4.0,8.0,42,0.00,,,0.00,meteohub,2013-02-19 15:17:00,
2013-02-19 10:22:00,47.5,26.1,31.02,NNW,327,6.0,8.0,43,0.00,,,0.00,meteohub,2013-02-19 15:22:00,
2013-02-19 10:27:00,47.7,27.3,31.02,South,185,3.0,6.0,45,0.00,,,0.00,meteohub,2013-02-19 15:27:00,
2013-02-19 10:32:00,47.8,28.6,31.02,WSW,240,0.0,6.0,47,0.00,,,0.00,meteohub,2013-02-19 15:32:00,
2013-02-19 10:37:00,47.8,28.6,31.02,SW,219,5.0,6.0,47,0.00,,,0.00,meteohub,2013-02-19 15:37:00,
2013-02-19 10:42:00,47.8,28.6,31.02,SW,214,0.0,6.0,47,0.00,,,0.00,meteohub,2013-02-19 15:42:00,
2013-02-19 10:47:00,47.8,28.6,31.02,NNW,335,2.0,6.0,47,0.00,,,0.00,meteohub,2013-02-19 15:47:00,
2013-02-19 10:52:00,47.7,28.9,31.02,SSW,193,0.0,6.0,48,0.00,,,0.00,meteohub,2013-02-19 15:52:00,
2013-02-19 10:57:00,47.7,29.5,31.02,South,190,4.0,6.0,49,0.00,,,0.00,meteohub,2013-02-19 15:57:00,
2013-02-19 11:02:00,47.5,29.3,31.02,SSW,211,4.0,6.0,49,0.00,,,0.00,meteohub,2013-02-19 16:02:00,
2013-02-19 11:07:00,47.5,29.8,31.02,SW,228,3.0,7.0,50,0.00,,,0.00,meteohub,2013-02-19 16:07:00,
2013-02-19 11:12:00,47.5,30.2,31.02,South,186,3.0,7.0,51,0.00,,,0.00,meteohub,2013-02-19 16:12:00,
2013-02-19 11:17:00,47.7,30.9,31.02,SSE,155,2.0,6.0,52,0.00,,,0.00,meteohub,2013-02-19 16:17:00,
2013-02-19 11:22:00,47.8,31.1,31.02,SW,226,5.0,6.0,52,0.00,,,0.00,meteohub,2013-02-19 16:22:00,
2013-02-19 11:27:00,47.8,30.6,31.02,SW,229,4.0,8.0,51,0.00,,,0.00,meteohub,2013-02-19 16:27:00,
2013-02-19 11:32:00,47.7,30.9,31.02,South,186,5.0,8.0,52,0.00,,,0.00,meteohub,2013-02-19 16:32:00,
2013-02-19 11:37:00,47.5,30.7,31.02,WNW,285,6.0,10.0,52,0.00,,,0.00,meteohub,2013-02-19 16:37:00,
2013-02-19 11:42:00,47.3,31.5,31.02,WSW,238,9.0,10.0,54,0.00,,,0.00,meteohub,2013-02-19 16:42:00,
2013-02-19 11:47:00,47.5,32.5,31.02,West,259,6.0,11.0,56,0.00,,,0.00,meteohub,2013-02-19 16:47:00,
2013-02-19 11:52:00,47.7,34.5,31.02,SW,219,10.0,11.0,60,0.00,,,0.00,meteohub,2013-02-19 16:52:00,
2013-02-19 11:57:00,47.8,35.1,31.02,SW,229,3.0,11.0,61,0.00,,,0.00,meteohub,2013-02-19 16:57:00,
2013-02-19 12:02:00,48.0,35.2,31.02,SSW,211,3.0,11.0,61,0.04,,,0.04,meteohub,2013-02-19 17:02:00,
2013-02-19 12:08:00,48.2,35.4,31.02,WNW,282,4.0,11.0,61,0.04,,,0.04,meteohub,2013-02-19 17:08:00,
2013-02-19 12:13:00,48.6,36.5,31.02,SSW,212,3.0,9.0,63,0.04,,,0.04,meteohub,2013-02-19 17:13:00,
2013-02-19 12:18:00,49.1,37.0,31.02,SW,229,0.0,9.0,63,0.04,,,0.04,meteohub,2013-02-19 17:18:00,
2013-02-19 12:23:00,49.5,35.8,31.02,SW,232,6.0,9.0,59,0.04,,,0.04,meteohub,2013-02-19 17:23:00,
2013-02-19 12:28:00,49.8,34.3,31.02,WSW,239,4.0,11.0,55,0.04,,,0.04,meteohub,2013-02-19 17:28:00,
2013-02-19 12:33:00,50.2,34.2,31.02,WSW,243,6.0,12.0,54,0.04,,,0.04,meteohub,2013-02-19 17:33:00,
2013-02-19 12:38:00,50.2,33.3,31.02,SW,215,4.0,12.0,52,0.04,,,0.04,meteohub,2013-02-19 17:38:00,
2013-02-19 12:43:00,50.4,33.4,31.02,South,191,4.0,12.0,52,0.04,,,0.04,meteohub,2013-02-19 17:43:00,
2013-02-19 12:48:00,50.5,33.6,31.02,SSW,206,6.0,12.0,52,0.04,,,0.04,meteohub,2013-02-19 17:48:00,
2013-02-19 12:54:00,50.9,34.3,31.02,SW,219,13.0,13.0,53,0.04,,,0.04,meteohub,2013-02-19 17:54:00,
2013-02-19 12:59:00,51.1,35.1,31.02,SW,226,10.0,10.0,54,0.04,,,0.04,meteohub,2013-02-19 17:59:00,
2013-02-19 13:04:00,51.3,36.1,31.02,North,3,8.0,13.0,56,0.00,,,0.04,meteohub,2013-02-19 18:04:00,
2013-02-19 13:09:00,51.3,36.5,31.02,South,173,4.0,13.0,57,0.00,,,0.04,meteohub,2013-02-19 18:09:00,
2013-02-19 13:14:00,51.4,37.6,31.02,SSE,149,6.0,12.0,59,0.00,,,0.04,meteohub,2013-02-19 18:14:00,
2013-02-19 13:19:00,51.4,37.9,31.02,SSW,199,3.0,12.0,60,0.00,,,0.04,meteohub,2013-02-19 18:19:00,
2013-02-19 13:24:00,51.6,39.4,31.02,WSW,256,6.0,16.0,63,0.00,,,0.04,meteohub,2013-02-19 18:24:00,
2013-02-19 13:29:00,51.6,40.3,31.02,South,175,5.0,16.0,65,0.00,,,0.04,meteohub,2013-02-19 18:29:00,
2013-02-19 13:34:00,51.6,40.6,31.02,SW,216,3.0,16.0,66,0.00,,,0.04,meteohub,2013-02-19 18:34:00,
2013-02-19 13:39:00,51.6,41.0,31.02,SW,215,4.0,16.0,67,0.00,,,0.04,meteohub,2013-02-19 18:39:00,
2013-02-19 13:44:00,51.6,41.0,31.02,West,260,6.0,11.0,67,0.00,,,0.04,meteohub,2013-02-19 18:44:00,
2013-02-19 13:50:00,51.6,40.3,31.02,SW,222,3.0,11.0,65,0.00,,,0.04,meteohub,2013-02-19 18:50:00,
2013-02-19 13:55:00,51.6,39.4,31.02,SE,133,4.0,11.0,63,0.00,,,0.04,meteohub,2013-02-19 18:55:00,
2013-02-19 14:00:00,51.8,39.2,31.02,SW,224,2.0,11.0,62,0.00,,,0.04,meteohub,2013-02-19 19:00:00,
2013-02-19 14:05:00,51.8,40.5,31.02,SW,224,3.0,10.0,65,0.00,,,0.04,meteohub,2013-02-19 19:05:00,
2013-02-19 14:10:00,51.8,42.3,31.02,SSW,194,5.0,10.0,70,0.00,,,0.04,meteohub,2013-02-19 19:10:00,
2013-02-19 14:15:00,51.6,43.3,31.02,West,265,2.0,9.0,73,0.00,,,0.04,meteohub,2013-02-19 19:15:00,
2013-02-19 14:20:00,51.6,43.9,31.02,WSW,245,3.0,9.0,75,0.00,,,0.04,meteohub,2013-02-19 19:20:00,
2013-02-19 14:25:00,51.6,45.3,31.02,South,178,2.0,8.0,79,0.00,,,0.04,meteohub,2013-02-19 19:25:00,
2013-02-19 14:30:00,51.4,45.5,31.02,South,175,2.0,8.0,80,0.00,,,0.04,meteohub,2013-02-19 19:30:00,
2013-02-19 14:36:00,51.4,45.5,31.02,SSW,198,4.0,8.0,80,0.00,,,0.04,meteohub,2013-02-19 19:36:00,
2013-02-19 14:41:00,51.4,45.9,31.02,SSW,213,6.0,8.0,81,0.00,,,0.08,meteohub,2013-02-19 19:41:00,
2013-02-19 14:46:00,51.4,46.4,31.02,WSW,247,0.0,11.0,83,0.04,,,0.08,meteohub,2013-02-19 19:46:00,
2013-02-19 14:51:00,51.3,46.2,31.02,SSW,213,5.0,11.0,83,0.04,,,0.08,meteohub,2013-02-19 19:51:00,
2013-02-19 14:56:00,51.3,46.6,31.02,SW,229,4.0,11.0,84,0.04,,,0.08,meteohub,2013-02-19 19:56:00,
2013-02-19 15:01:00,51.3,46.6,31.02,SW,233,5.0,11.0,84,0.04,,,0.08,meteohub,2013-02-19 20:01:00,
2013-02-19 15:06:00,51.1,46.4,31.02,SW,222,6.0,8.0,84,0.04,,,0.08,meteohub,2013-02-19 20:06:00,
2013-02-19 15:11:00,51.1,46.4,31.02,SE,128,0.0,8.0,84,0.04,,,0.08,meteohub,2013-02-19 20:11:00,
2013-02-19 15:16:00,51.1,46.4,31.02,SW,231,3.0,8.0,84,0.04,,,0.08,meteohub,2013-02-19 20:16:00,
2013-02-19 15:21:00,50.9,46.2,31.02,WSW,237,0.0,8.0,84,0.04,,,0.13,meteohub,2013-02-19 20:21:00,
2013-02-19 15:26:00,51.1,46.4,31.02,South,191,8.0,8.0,84,0.08,,,0.13,meteohub,2013-02-19 20:26:00,
2013-02-19 15:31:00,50.9,46.2,31.02,SW,219,2.0,8.0,84,0.08,,,0.13,meteohub,2013-02-19 20:31:00,
2013-02-19 15:37:00,51.1,46.4,31.02,SW,222,4.0,10.0,84,0.04,,,0.13,meteohub,2013-02-19 20:37:00,
2013-02-19 15:42:00,50.9,45.9,31.02,WSW,244,0.0,10.0,83,0.04,,,0.13,meteohub,2013-02-19 20:42:00,
2013-02-19 15:47:00,50.9,45.9,31.02,SSW,199,6.0,8.0,83,0.04,,,0.13,meteohub,2013-02-19 20:47:00,
2013-02-19 15:52:00,51.1,45.9,31.02,South,186,0.0,8.0,82,0.04,,,0.13,meteohub,2013-02-19 20:52:00,
2013-02-19 15:57:00,51.1,45.1,31.02,SSW,202,4.0,9.0,80,0.04,,,0.13,meteohub,2013-02-19 20:57:00,
2013-02-19 16:02:00,51.1,44.8,31.02,West,270,2.0,9.0,79,0.04,,,0.13,meteohub,2013-02-19 21:02:00,
2013-02-19 16:07:00,51.1,44.1,31.02,WSW,256,0.0,10.0,77,0.04,,,0.13,meteohub,2013-02-19 21:07:00,
2013-02-19 16:12:00,51.1,43.5,31.02,North,353,4.0,10.0,75,0.00,,,0.13,meteohub,2013-02-19 21:12:00,
2013-02-19 16:17:00,50.9,43.3,31.02,WNW,287,6.0,10.0,75,0.00,,,0.13,meteohub,2013-02-19 21:17:00,
2013-02-19 16:22:00,50.9,42.6,31.02,SSW,198,4.0,10.0,73,0.00,,,0.13,meteohub,2013-02-19 21:22:00,
2013-02-19 16:27:00,50.7,41.4,31.02,SSW,195,3.0,8.0,70,0.00,,,0.13,meteohub,2013-02-19 21:27:00,
2013-02-19 16:32:00,50.7,41.0,31.02,SW,221,4.0,8.0,69,0.00,,,0.13,meteohub,2013-02-19 21:32:00,
2013-02-19 16:37:00,50.7,41.0,31.02,West,271,0.0,8.0,69,0.00,,,0.13,meteohub,2013-02-19 21:37:00,
2013-02-19 16:42:00,50.5,40.5,31.02,West,271,4.0,8.0,68,0.00,,,0.13,meteohub,2013-02-19 21:42:00,
2013-02-19 16:47:00,50.5,39.9,31.02,WNW,301,2.0,5.0,67,0.00,,,0.13,meteohub,2013-02-19 21:47:00,
2013-02-19 16:52:00,50.4,39.7,31.02,SW,230,4.0,5.0,67,0.00,,,0.13,meteohub,2013-02-19 21:52:00,
2013-02-19 16:57:00,50.4,39.0,31.02,NNW,337,0.0,8.0,65,0.00,,,0.13,meteohub,2013-02-19 21:57:00,
2013-02-19 17:02:00,50.4,39.0,31.02,WNW,292,2.0,8.0,65,0.00,,,0.13,meteohub,2013-02-19 22:02:00,
2013-02-19 17:07:00,50.4,39.0,31.02,SW,215,6.0,8.0,65,0.00,,,0.13,meteohub,2013-02-19 22:07:00,
2013-02-19 17:12:00,50.2,38.8,31.02,SSW,207,3.0,8.0,65,0.00,,,0.13,meteohub,2013-02-19 22:12:00,
2013-02-19 17:17:00,50.2,38.8,31.02,West,260,0.0,8.0,65,0.00,,,0.13,meteohub,2013-02-19 22:17:00,
2013-02-19 17:22:00,50.2,39.2,31.02,WNW,302,3.0,8.0,66,0.00,,,0.13,meteohub,2013-02-19 22:22:00,
2013-02-19 17:27:00,50.2,39.2,31.02,SSW,207,0.0,6.0,66,0.00,,,0.13,meteohub,2013-02-19 22:27:00,
2013-02-19 17:32:00,50.0,38.7,31.02,SSE,147,0.0,6.0,65,0.00,,,0.13,meteohub,2013-02-19 22:32:00,
2013-02-19 17:37:00,49.8,38.5,31.02,WSW,254,0.0,5.0,65,0.00,,,0.13,meteohub,2013-02-19 22:37:00,
2013-02-19 17:42:00,49.8,38.5,31.02,SSW,211,4.0,5.0,65,0.00,,,0.13,meteohub,2013-02-19 22:42:00,
2013-02-19 17:47:00,49.6,37.6,31.02,WNW,296,3.0,5.0,63,0.00,,,0.13,meteohub,2013-02-19 22:47:00,
2013-02-19 17:52:00,49.6,36.7,31.02,West,279,5.0,5.0,61,0.00,,,0.13,meteohub,2013-02-19 22:52:00,
2013-02-19 17:57:00,49.5,35.2,31.02,ENE,64,0.0,7.0,58,0.00,,,0.13,meteohub,2013-02-19 22:57:00,
2013-02-19 18:02:00,49.5,35.2,31.02,WNW,289,3.0,7.0,58,0.00,,,0.13,meteohub,2013-02-19 23:02:00,
2013-02-19 18:07:00,49.3,33.8,31.02,WSW,254,0.0,5.0,55,0.00,,,0.13,meteohub,2013-02-19 23:07:00,
2013-02-19 18:12:00,49.1,33.3,31.02,NNW,339,3.0,5.0,54,0.00,,,0.13,meteohub,2013-02-19 23:12:00,
2013-02-19 18:17:00,49.1,33.3,31.02,NNW,341,0.0,5.0,54,0.00,,,0.13,meteohub,2013-02-19 23:17:00,
2013-02-19 18:22:00,48.9,32.5,31.02,SW,232,4.0,5.0,53,0.00,,,0.13,meteohub,2013-02-19 23:22:00,
2013-02-19 18:27:00,48.9,32.5,31.02,SSE,158,3.0,6.0,53,0.00,,,0.13,meteohub,2013-02-19 23:27:00,
2013-02-19 18:32:00,48.9,32.0,31.02,SSW,203,3.0,6.0,52,0.00,,,0.13,meteohub,2013-02-19 23:32:00,
2013-02-19 18:38:00,48.9,31.6,31.02,SW,223,3.0,6.0,51,0.00,,,0.13,meteohub,2013-02-19 23:38:00,
2013-02-19 18:43:00,48.7,31.5,31.02,ENE,64,4.0,6.0,51,0.00,,,0.13,meteohub,2013-02-19 23:43:00,
2013-02-19 18:48:00,48.7,31.5,31.02,North,1,0.0,5.0,51,0.00,,,0.13,meteohub,2013-02-19 23:48:00,
2013-02-19 18:53:00,48.4,31.1,31.02,WSW,251,3.0,6.0,51,0.00,,,0.13,meteohub,2013-02-19 23:53:00,
2013-02-19 18:58:00,48.2,30.9,31.02,West,266,0.0,6.0,51,0.00,,,0.13,meteohub,2013-02-19 23:58:00,
2013-02-19 19:03:00,48.0,31.3,31.02,SW,223,0.0,6.0,52,0.00,,,0.13,meteohub,2013-02-20 00:03:00,
2013-02-19 19:08:00,47.8,31.5,31.02,WSW,239,0.0,6.0,53,0.00,,,0.13,meteohub,2013-02-20 00:08:00,
2013-02-19 19:13:00,47.7,31.8,31.02,SW,230,0.0,6.0,54,0.00,,,0.00,meteohub,2013-02-20 00:13:00,
2013-02-19 19:18:00,47.5,31.6,31.02,SW,231,2.0,6.0,54,0.00,,,0.00,meteohub,2013-02-20 00:18:00,
2013-02-19 19:23:00,47.3,32.0,31.02,SW,236,0.0,5.0,55,0.00,,,0.00,meteohub,2013-02-20 00:23:00,
2013-02-19 19:29:00,47.1,31.8,31.02,South,188,0.0,5.0,55,0.00,,,0.00,meteohub,2013-02-20 00:29:00,
2013-02-19 19:34:00,46.9,32.5,31.02,West,273,0.0,5.0,57,0.00,,,0.00,meteohub,2013-02-20 00:34:00,
2013-02-19 19:39:00,46.8,32.7,31.02,NNE,12,3.0,5.0,58,0.00,,,0.00,meteohub,2013-02-20 00:39:00,
2013-02-19 19:44:00,46.6,32.5,31.02,NW,317,0.0,5.0,58,0.00,,,0.00,meteohub,2013-02-20 00:44:00,
2013-02-19 19:49:00,46.4,32.4,31.02,SW,233,0.0,5.0,58,0.00,,,0.00,meteohub,2013-02-20 00:49:00,
2013-02-19 19:54:00,46.2,33.1,31.02,West,266,3.0,4.0,60,0.00,,,0.00,meteohub,2013-02-20 00:54:00,
2013-02-19 19:59:00,46.0,33.8,31.02,WSW,244,0.0,4.0,62,0.00,,,0.00,meteohub,2013-02-20 00:59:00,
2013-02-19 20:04:00,45.9,34.0,31.02,SW,225,0.0,4.0,63,0.00,,,0.00,meteohub,2013-02-20 01:04:00,
2013-02-19 20:09:00,45.7,34.2,31.02,SW,227,0.0,4.0,64,0.00,,,0.00,meteohub,2013-02-20 01:09:00,
2013-02-19 20:15:00,45.5,34.9,31.02,South,170,0.0,4.0,66,0.00,,,0.00,meteohub,2013-02-20 01:15:00,
2013-02-19 20:20:00,45.5,36.3,31.02,SW,214,0.0,4.0,70,0.00,,,0.00,meteohub,2013-02-20 01:20:00,
2013-02-19 20:25:00,45.3,36.5,31.02,WSW,250,0.0,4.0,71,0.00,,,0.00,meteohub,2013-02-20 01:25:00,
2013-02-19 20:30:00,45.3,36.5,31.02,SW,231,2.0,4.0,71,0.00,,,0.00,meteohub,2013-02-20 01:30:00,
2013-02-19 20:35:00,45.1,36.3,31.02,WSW,248,0.0,4.0,71,0.00,,,0.00,meteohub,2013-02-20 01:35:00,
2013-02-19 20:40:00,45.0,36.1,31.02,North,3,0.0,4.0,71,0.00,,,0.00,meteohub,2013-02-20 01:40:00,
2013-02-19 20:45:00,45.0,36.5,31.02,SE,133,0.0,4.0,72,0.00,,,0.00,meteohub,2013-02-20 01:45:00,
2013-02-19 20:50:00,45.0,36.5,31.02,WNW,291,0.0,4.0,72,0.00,,,0.00,meteohub,2013-02-20 01:50:00,
2013-02-19 20:55:00,44.8,36.3,31.02,NW,322,0.0,4.0,72,0.00,,,0.00,meteohub,2013-02-20 01:55:00,
2013-02-19 21:00:00,44.6,35.4,31.02,SSW,202,2.0,4.0,70,0.00,,,0.00,meteohub,2013-02-20 02:00:00,
2013-02-19 21:06:00,44.6,35.4,31.02,SW,234,0.0,5.0,70,0.00,,,0.00,meteohub,2013-02-20 02:06:00,
2013-02-19 21:11:00,44.4,35.2,31.02,SW,230,0.0,5.0,70,0.00,,,0.00,meteohub,2013-02-20 02:11:00,
2013-02-19 21:16:00,44.4,34.9,31.02,SW,217,3.0,4.0,69,0.00,,,0.00,meteohub,2013-02-20 02:16:00,
2013-02-19 21:21:00,44.2,35.1,31.02,West,277,0.0,4.0,70,0.00,,,0.00,meteohub,2013-02-20 02:21:00,
2013-02-19 21:26:00,44.1,34.5,31.02,SW,218,0.0,4.0,69,0.00,,,0.00,meteohub,2013-02-20 02:26:00,
2013-02-19 21:31:00,43.9,34.0,31.02,West,263,0.0,4.0,68,0.00,,,0.00,meteohub,2013-02-20 02:31:00,
2013-02-19 21:36:00,43.7,33.8,31.02,WSW,257,0.0,4.0,68,0.00,,,0.00,meteohub,2013-02-20 02:36:00,
2013-02-19 21:41:00,43.5,33.6,31.02,WNW,294,0.0,4.0,68,0.00,,,0.00,meteohub,2013-02-20 02:41:00,
2013-02-19 21:47:00,43.2,33.3,31.02,West,280,0.0,3.0,68,0.00,,,0.00,meteohub,2013-02-20 02:47:00,
2013-02-19 21:52:00,43.0,33.1,31.02,SSW,204,0.0,3.0,68,0.00,,,0.00,meteohub,2013-02-20 02:52:00,
2013-02-19 21:57:00,42.8,33.3,31.02,SSW,213,0.0,3.0,69,0.00,,,0.00,meteohub,2013-02-20 02:57:00,
2013-02-19 22:02:00,42.6,33.1,31.02,SW,214,0.0,3.0,69,0.00,,,0.00,meteohub,2013-02-20 03:02:00,
2013-02-19 22:07:00,42.4,33.1,31.02,SW,214,0.0,3.0,69,0.00,,,0.00,meteohub,2013-02-20 03:07:00,
2013-02-19 22:12:00,42.3,33.3,31.02,SW,226,0.0,3.0,70,0.00,,,0.00,meteohub,2013-02-20 03:12:00,
2013-02-19 22:17:00,42.3,33.3,31.02,SW,226,0.0,3.0,70,0.00,,,0.00,meteohub,2013-02-20 03:17:00,
2013-02-19 22:22:00,42.1,33.1,31.02,SW,226,0.0,3.0,70,0.00,,,0.00,meteohub,2013-02-20 03:22:00,
2013-02-19 22:27:00,41.7,32.7,31.02,WSW,251,0.0,3.0,70,0.00,,,0.00,meteohub,2013-02-20 03:27:00,
2013-02-19 22:32:00,41.5,32.5,31.02,WSW,251,0.0,3.0,70,0.00,,,0.00,meteohub,2013-02-20 03:32:00,
2013-02-19 22:37:00,41.2,31.8,31.02,WSW,251,0.0,0.0,69,0.00,,,0.00,meteohub,2013-02-20 03:37:00,
2013-02-19 22:42:00,40.6,31.3,31.02,WSW,251,0.0,0.0,69,0.00,,,0.00,meteohub,2013-02-20 03:42:00,
2013-02-19 22:47:00,40.5,31.5,31.02,WSW,238,0.0,0.0,70,0.00,,,0.00,meteohub,2013-02-20 03:47:00,
2013-02-19 22:52:00,40.1,31.1,31.02,WSW,238,0.0,0.0,70,0.00,,,0.00,meteohub,2013-02-20 03:52:00,
2013-02-19 22:57:00,39.9,31.3,31.02,WSW,238,0.0,0.0,71,0.00,,,0.00,meteohub,2013-02-20 03:57:00,
2013-02-19 23:02:00,39.6,30.6,31.02,WSW,238,0.0,0.0,70,0.00,,,0.00,meteohub,2013-02-20 04:02:00,
2013-02-19 23:07:00,39.4,30.7,31.02,WSW,238,0.0,0.0,71,0.00,,,0.00,meteohub,2013-02-20 04:07:00,
2013-02-19 23:12:00,39.2,30.6,31.02,WSW,238,0.0,0.0,71,0.00,,,0.00,meteohub,2013-02-20 04:12:00,
2013-02-19 23:17:00,38.8,30.2,31.02,WSW,238,0.0,0.0,71,0.00,,,0.00,meteohub,2013-02-20 04:17:00,
2013-02-19 23:22:00,38.7,30.0,31.02,WSW,238,0.0,0.0,71,0.00,,,0.00,meteohub,2013-02-20 04:22:00,
2013-02-19 23:27:00,38.5,30.2,31.02,WSW,239,0.0,0.0,72,0.00,,,0.00,meteohub,2013-02-20 04:27:00,
2013-02-19 23:32:00,38.5,30.6,31.02,WSW,239,0.0,0.0,73,0.00,,,0.00,meteohub,2013-02-20 04:32:00,
2013-02-19 23:37:00,38.5,30.2,31.02,WSW,239,0.0,0.0,72,0.00,,,0.00,meteohub,2013-02-20 04:37:00,
2013-02-19 23:42:00,38.1,29.8,31.02,SSW,192,0.0,0.0,72,0.00,,,0.00,meteohub,2013-02-20 04:42:00,
2013-02-19 23:47:00,38.3,30.7,31.02,SW,233,0.0,0.0,74,0.00,,,0.00,meteohub,2013-02-20 04:47:00,
2013-02-19 23:52:00,38.7,31.5,31.02,SSW,205,0.0,0.0,75,0.00,,,0.00,meteohub,2013-02-20 04:52:00,
2013-02-19 23:57:00,39.2,32.5,31.02,WNW,296,0.0,0.0,77,0.00,,,0.00,meteohub,2013-02-20 04:57:00,